,,,PA_Meas_PMT16A,,PR_Meas_QMR101_102,,RH_Meas_QMH101,,SR_Meas_QMS101,,TA_Meas_QMH101,,GenWind,,GenWind,
date,time,status,PA,status,PR,status,RH,status,SR,status,TA,status,DirAvg,status,SpdAvg,
2008-04-12, 00:00:05,VALID,1002.47,VALID,0,VALID,93.2173,VALID,0,VALID,23.9797,VALID,26,VALID,0.191016,
2008-04-12, 00:01:05,VALID,1002.45,VALID,0,VALID,93.2707,VALID,0,VALID,23.9584,VALID,26,VALID,0.328516,
2008-04-12, 00:02:05,VALID,1002.44,VALID,0,VALID,92.9961,VALID,0,VALID,23.9195,VALID,26,VALID,0.469531,
2008-04-12, 00:03:05,VALID,1002.41,VALID,0,VALID,93.0952,VALID,0,VALID,23.9408,VALID,26,VALID,0.426953,
2008-04-12, 00:04:05,VALID,1002.38,VALID,0,VALID,93.4385,VALID,0,VALID,23.9408,VALID,26,VALID,0.285156,
2008-04-12, 00:05:05,VALID,1002.32,VALID,0,VALID,93.4385,VALID,0,VALID,23.9195,VALID,26,VALID,0.352344,
2008-04-12, 00:06:05,VALID,1002.3,VALID,0,VALID,93.3165,VALID,0,VALID,23.9,VALID,26,VALID,0.326953,
2008-04-12, 00:07:05,VALID,1002.27,VALID,0,VALID,93.2936,VALID,0,VALID,23.8805,VALID,26,VALID,0.370313,
2008-04-12, 00:08:05,VALID,1002.21,VALID,0,VALID,93.2707,VALID,0,VALID,23.8611,VALID,25,VALID,0.119141,
2008-04-12, 00:09:05,VALID,1002.22,VALID,0,VALID,93.0418,VALID,0,VALID,23.8416,VALID,25,VALID,0.256641,
2008-04-12, 00:10:05,VALID,1002.22,VALID,0,VALID,93.0723,VALID,0,VALID,23.8221,VALID,25,VALID,0.244531,
2008-04-12, 00:11:05,VALID,1002.23,VALID,0,VALID,93.1257,VALID,0,VALID,23.8221,VALID,25,VALID,0.195313,
2008-04-12, 00:12:05,VALID,1002.19,VALID,0,VALID,93.2707,VALID,0,VALID,23.8027,VALID,25,VALID,0.242188,
2008-04-12, 00:13:05,VALID,1002.15,VALID,0,VALID,93.3775,VALID,0,VALID,23.7814,VALID,25,VALID,0.304688,
2008-04-12, 00:14:05,VALID,1002.16,VALID,0,VALID,93.3851,VALID,0,VALID,23.8045,VALID,25,VALID,0,
2008-04-12, 00:15:05,VALID,1002.16,VALID,0,VALID,93.4614,VALID,0,VALID,23.7832,VALID,25,VALID,0,
2008-04-12, 00:16:05,VALID,1002.17,VALID,0,VALID,93.5377,VALID,0.100563,VALID,23.7655,VALID,25,VALID,0.24375,
2008-04-12, 00:17:05,VALID,1002.17,VALID,0,VALID,93.5606,VALID,0,VALID,23.7443,VALID,25,VALID,0.292578,
2008-04-12, 00:18:05,VALID,1002.11,VALID,0,VALID,93.614,VALID,0,VALID,23.7248,VALID,25,VALID,0.247266,
2008-04-12, 00:19:05,VALID,1002.13,VALID,0,VALID,93.6674,VALID,0,VALID,23.7053,VALID,25,VALID,0.353906,
2008-04-12, 00:20:05,VALID,1002.12,VALID,0,VALID,93.7208,VALID,0,VALID,23.7266,VALID,25,VALID,0.297656,
2008-04-12, 00:21:05,VALID,1002.1,VALID,0,VALID,93.7437,VALID,0,VALID,23.6859,VALID,25,VALID,0.308984,
2008-04-12, 00:22:05,VALID,1002.12,VALID,0,VALID,93.7895,VALID,0.100563,VALID,23.6664,VALID,25,VALID,0.357031,
2008-04-12, 00:23:05,VALID,1002.08,VALID,0,VALID,93.8505,VALID,0,VALID,23.6664,VALID,25,VALID,0.325391,
2008-04-12, 00:24:05,VALID,1002.05,VALID,0,VALID,93.9573,VALID,0,VALID,23.6469,VALID,21,VALID,0.474609,
2008-04-12, 00:25:05,VALID,1002.04,VALID,0,VALID,93.9725,VALID,0,VALID,23.6275,VALID,13,VALID,0.535156,
2008-04-12, 00:26:05,VALID,1002.05,VALID,0,VALID,94.0107,VALID,0.100563,VALID,23.608,VALID,13,VALID,0.492969,
2008-04-12, 00:27:05,VALID,1002.03,VALID,0,VALID,94.0031,VALID,0,VALID,23.608,VALID,12,VALID,0.490234,
2008-04-12, 00:28:05,VALID,1002.03,VALID,0,VALID,93.942,VALID,0,VALID,23.5885,VALID,12,VALID,0.394922,
2008-04-12, 00:29:05,VALID,1002.04,VALID,0,VALID,93.942,VALID,0,VALID,23.5496,VALID,12,VALID,0.373437,
2008-04-12, 00:30:05,VALID,1002.02,VALID,0,VALID,93.942,VALID,0,VALID,23.5302,VALID,12,VALID,0.340234,
2008-04-12, 00:31:05,VALID,1002.02,VALID,0,VALID,93.9954,VALID,0,VALID,23.5107,VALID,12,VALID,0.270703,
2008-04-12, 00:32:05,VALID,1002.02,VALID,0,VALID,94.0565,VALID,0,VALID,23.4718,VALID,12,VALID,0.227734,
2008-04-12, 00:33:05,VALID,1002,VALID,0,VALID,94.0641,VALID,0,VALID,23.4718,VALID,12,VALID,0.187109,
2008-04-12, 00:34:05,VALID,1001.98,VALID,0,VALID,94.1175,VALID,0,VALID,23.4311,VALID,12,VALID,0.234375,
2008-04-12, 00:35:05,VALID,1001.93,VALID,0,VALID,94.1022,VALID,0,VALID,23.4523,VALID,12,VALID,0.183984,
2008-04-12, 00:36:05,VALID,1001.88,VALID,0,VALID,94.1709,VALID,0,VALID,23.4328,VALID,12,VALID,0.273438,
2008-04-12, 00:37:05,VALID,1001.86,VALID,0,VALID,94.209,VALID,0,VALID,23.4328,VALID,12,VALID,0.319141,
2008-04-12, 00:38:05,VALID,1001.84,VALID,0,VALID,94.2472,VALID,0,VALID,23.4134,VALID,12,VALID,0.230859,
2008-04-12, 00:39:05,VALID,1001.82,VALID,0,VALID,94.2014,VALID,0,VALID,23.3939,VALID,12,VALID,0.167187,
2008-04-12, 00:40:05,VALID,1001.83,VALID,0,VALID,94.1862,VALID,0,VALID,23.3744,VALID,12,VALID,0,
2008-04-12, 00:41:05,VALID,1001.82,VALID,0,VALID,94.2472,VALID,0,VALID,23.355,VALID,12,VALID,0,
2008-04-12, 00:42:05,VALID,1001.77,VALID,0,VALID,94.2548,VALID,0,VALID,23.3355,VALID,12,VALID,0,
2008-04-12, 00:43:05,VALID,1001.78,VALID,0,VALID,94.2853,VALID,0,VALID,23.2948,VALID,12,VALID,0,
2008-04-12, 00:44:05,VALID,1001.79,VALID,0,VALID,94.3082,VALID,0,VALID,23.2966,VALID,12,VALID,0,
2008-04-12, 00:45:05,VALID,1001.78,VALID,0,VALID,94.354,VALID,0,VALID,23.2577,VALID,12,VALID,0.221094,
2008-04-12, 00:46:05,VALID,1001.77,VALID,0,VALID,94.4379,VALID,0,VALID,23.2577,VALID,12,VALID,0.363281,
2008-04-12, 00:47:05,VALID,1001.76,VALID,0,VALID,94.5295,VALID,0,VALID,23.2382,VALID,12,VALID,0.207422,
2008-04-12, 00:48:05,VALID,1001.73,VALID,0,VALID,94.5371,VALID,0,VALID,23.2187,VALID,12,VALID,0.286719,
2008-04-12, 00:49:05,VALID,1001.76,VALID,0,VALID,94.5829,VALID,0.100563,VALID,23.2205,VALID,12,VALID,0.185547,
2008-04-12, 00:50:05,VALID,1001.78,VALID,0,VALID,94.6363,VALID,0,VALID,23.1798,VALID,12,VALID,0.194531,
2008-04-12, 00:51:05,VALID,1001.76,VALID,0,VALID,94.6515,VALID,0,VALID,23.1798,VALID,12,VALID,0.160938,
2008-04-12, 00:52:05,VALID,1001.75,VALID,0,VALID,94.6591,VALID,0,VALID,23.1603,VALID,12,VALID,0.0234375,
2008-04-12, 00:53:05,VALID,1001.77,VALID,0,VALID,94.6363,VALID,0,VALID,23.1409,VALID,12,VALID,0,
2008-04-12, 00:54:05,VALID,1001.74,VALID,0,VALID,94.6363,VALID,0,VALID,23.1214,VALID,12,VALID,0.00546875,
2008-04-12, 00:55:05,VALID,1001.74,VALID,0,VALID,94.682,VALID,0,VALID,23.0807,VALID,12,VALID,0.186719,
2008-04-12, 00:56:05,VALID,1001.73,VALID,0,VALID,94.7049,VALID,0,VALID,23.0613,VALID,12,VALID,0.0964844,
2008-04-12, 00:57:05,VALID,1001.73,VALID,0,VALID,94.7354,VALID,0,VALID,23.063,VALID,12,VALID,0,
2008-04-12, 00:58:05,VALID,1001.75,VALID,0,VALID,94.8728,VALID,0,VALID,23.0418,VALID,12,VALID,0,
2008-04-12, 00:59:05,VALID,1001.73,VALID,0,VALID,94.9414,VALID,0,VALID,23.063,VALID,12,VALID,0,
2008-04-12, 01:00:05,VALID,1001.72,VALID,0,VALID,94.9414,VALID,0,VALID,23.0418,VALID,12,VALID,0,
2008-04-12, 01:01:05,VALID,1001.7,VALID,0,VALID,94.9185,VALID,0,VALID,23.0436,VALID,12,VALID,0,
2008-04-12, 01:02:05,VALID,1001.67,VALID,0,VALID,95.0101,VALID,0,VALID,23.0436,VALID,12,VALID,0.396484,
2008-04-12, 01:03:05,VALID,1001.71,VALID,0,VALID,95.1016,VALID,0,VALID,23.063,VALID,12,VALID,0.342969,
2008-04-12, 01:04:05,VALID,1001.68,VALID,0,VALID,95.2008,VALID,0,VALID,23.063,VALID,13,VALID,0.383594,
2008-04-12, 01:05:05,VALID,1001.67,VALID,0,VALID,95.2695,VALID,0,VALID,23.0613,VALID,13,VALID,0.423047,
2008-04-12, 01:06:05,VALID,1001.7,VALID,0,VALID,95.3076,VALID,0.100563,VALID,23.1019,VALID,13,VALID,0.315625,
2008-04-12, 01:07:05,VALID,1001.68,VALID,0,VALID,95.2542,VALID,0,VALID,23.0613,VALID,13,VALID,0.246484,
2008-04-12, 01:08:05,VALID,1001.69,VALID,0,VALID,95.2695,VALID,0,VALID,23.0825,VALID,13,VALID,0,
2008-04-12, 01:09:05,VALID,1001.7,VALID,0,VALID,95.3,VALID,0,VALID,23.0613,VALID,13,VALID,0,
2008-04-12, 01:10:05,VALID,1001.68,VALID,0,VALID,95.3152,VALID,0,VALID,23.0825,VALID,13,VALID,0,
2008-04-12, 01:11:05,VALID,1001.7,VALID,0,VALID,95.3229,VALID,0,VALID,23.0807,VALID,13,VALID,0.158203,
2008-04-12, 01:12:05,VALID,1001.71,VALID,0,VALID,95.3915,VALID,0,VALID,23.1019,VALID,13,VALID,0.0277344,
2008-04-12, 01:13:05,VALID,1001.68,VALID,0,VALID,95.422,VALID,0,VALID,23.1214,VALID,13,VALID,0.0273438,
2008-04-12, 01:14:05,VALID,1001.67,VALID,0,VALID,95.4297,VALID,0,VALID,23.1197,VALID,13,VALID,0,
2008-04-12, 01:15:05,VALID,1001.69,VALID,0,VALID,95.3839,VALID,0,VALID,23.1197,VALID,13,VALID,0,
2008-04-12, 01:16:05,VALID,1001.66,VALID,0,VALID,95.4068,VALID,0.100563,VALID,23.1197,VALID,13,VALID,0,
2008-04-12, 01:17:05,VALID,1001.65,VALID,0,VALID,95.3686,VALID,0,VALID,23.1409,VALID,13,VALID,0,
2008-04-12, 01:18:05,VALID,1001.63,VALID,0,VALID,95.361,VALID,0,VALID,23.1197,VALID,13,VALID,0,
2008-04-12, 01:19:05,VALID,1001.62,VALID,0,VALID,95.3305,VALID,0.100563,VALID,23.1214,VALID,13,VALID,0,
2008-04-12, 01:20:05,VALID,1001.62,VALID,0,VALID,95.3381,VALID,0,VALID,23.1002,VALID,13,VALID,0,
2008-04-12, 01:21:05,VALID,1001.58,VALID,0,VALID,95.3229,VALID,0,VALID,23.1002,VALID,13,VALID,0,
2008-04-12, 01:22:05,VALID,1001.59,VALID,0,VALID,95.2923,VALID,0,VALID,23.1214,VALID,13,VALID,0,
2008-04-12, 01:23:05,VALID,1001.54,VALID,0,VALID,95.2847,VALID,0,VALID,23.0825,VALID,13,VALID,0,
2008-04-12, 01:24:05,VALID,1001.53,VALID,0,VALID,95.3381,VALID,0,VALID,23.063,VALID,14,VALID,0.288281,
2008-04-12, 01:25:05,VALID,1001.51,VALID,0,VALID,95.3686,VALID,0,VALID,23.0648,VALID,14,VALID,0.191406,
2008-04-12, 01:26:05,VALID,1001.47,VALID,0,VALID,95.3152,VALID,0,VALID,23.0241,VALID,14,VALID,0,
2008-04-12, 01:27:05,VALID,1001.47,VALID,0,VALID,95.3076,VALID,0,VALID,23.0241,VALID,14,VALID,0,
2008-04-12, 01:28:05,VALID,1001.5,VALID,0,VALID,95.3763,VALID,0,VALID,23.0046,VALID,14,VALID,0,
2008-04-12, 01:29:05,VALID,1001.45,VALID,0,VALID,95.4526,VALID,0,VALID,23.0046,VALID,14,VALID,0,
2008-04-12, 01:30:05,VALID,1001.44,VALID,0,VALID,95.4831,VALID,0,VALID,23.0241,VALID,14,VALID,0,
2008-04-12, 01:31:05,VALID,1001.43,VALID,0,VALID,95.4983,VALID,0,VALID,23.0241,VALID,14,VALID,0,
2008-04-12, 01:32:05,VALID,1001.42,VALID,0,VALID,95.5288,VALID,0,VALID,23.0241,VALID,14,VALID,0,
2008-04-12, 01:33:05,VALID,1001.41,VALID,0,VALID,95.5746,VALID,0,VALID,23.0453,VALID,14,VALID,0,
2008-04-12, 01:34:05,VALID,1001.37,VALID,0,VALID,95.5517,VALID,0,VALID,23.0436,VALID,14,VALID,0,
2008-04-12, 01:35:05,VALID,1001.36,VALID,0,VALID,95.4983,VALID,0,VALID,23.0241,VALID,14,VALID,0,
2008-04-12, 01:36:05,VALID,1001.33,VALID,0,VALID,95.3534,VALID,0,VALID,23.0046,VALID,14,VALID,0.110156,
2008-04-12, 01:37:05,VALID,1001.29,VALID,0,VALID,95.2237,VALID,0,VALID,22.9869,VALID,14,VALID,0.437109,
2008-04-12, 01:38:05,VALID,1001.26,VALID,0,VALID,95.1474,VALID,0,VALID,22.9268,VALID,14,VALID,0.444141,
2008-04-12, 01:39:05,VALID,1001.26,VALID,0,VALID,95.1855,VALID,0,VALID,22.8684,VALID,14,VALID,0.440625,
2008-04-12, 01:40:05,VALID,1001.21,VALID,0,VALID,95.155,VALID,0,VALID,22.8701,VALID,14,VALID,0.517969,
2008-04-12, 01:41:05,VALID,1001.18,VALID,0,VALID,95.1245,VALID,0,VALID,22.8507,VALID,14,VALID,0.437891,
2008-04-12, 01:42:05,VALID,1001.2,VALID,0,VALID,95.2313,VALID,0,VALID,22.8118,VALID,14,VALID,0.387891,
2008-04-12, 01:43:05,VALID,1001.17,VALID,0,VALID,95.3381,VALID,0,VALID,22.7906,VALID,14,VALID,0.280859,
2008-04-12, 01:44:05,VALID,1001.17,VALID,0,VALID,95.3686,VALID,0,VALID,22.8118,VALID,14,VALID,0.3625,
2008-04-12, 01:45:05,VALID,1001.19,VALID,0,VALID,95.3686,VALID,0,VALID,22.7711,VALID,14,VALID,0.378516,
2008-04-12, 01:46:05,VALID,1001.17,VALID,0,VALID,95.3763,VALID,0,VALID,22.7711,VALID,14,VALID,0.0195313,
2008-04-12, 01:47:05,VALID,1001.17,VALID,0,VALID,95.3686,VALID,0,VALID,22.7728,VALID,14,VALID,0,
2008-04-12, 01:48:05,VALID,1001.18,VALID,0,VALID,95.3991,VALID,0,VALID,22.7516,VALID,14,VALID,0,
2008-04-12, 01:49:05,VALID,1001.19,VALID,0,VALID,95.4907,VALID,0,VALID,22.7534,VALID,14,VALID,0,
2008-04-12, 01:50:05,VALID,1001.18,VALID,0,VALID,95.5899,VALID,0,VALID,22.7923,VALID,14,VALID,0,
2008-04-12, 01:51:05,VALID,1001.16,VALID,0,VALID,95.6433,VALID,0,VALID,22.7711,VALID,14,VALID,0,
2008-04-12, 01:52:05,VALID,1001.17,VALID,0,VALID,95.6967,VALID,0,VALID,22.7906,VALID,14,VALID,0,
2008-04-12, 01:53:05,VALID,1001.13,VALID,0,VALID,95.7348,VALID,0,VALID,22.7906,VALID,14,VALID,0,
2008-04-12, 01:54:05,VALID,1001.12,VALID,0,VALID,95.7653,VALID,0,VALID,22.81,VALID,14,VALID,0,
2008-04-12, 01:55:05,VALID,1001.11,VALID,0,VALID,95.7806,VALID,0,VALID,22.81,VALID,14,VALID,0,
2008-04-12, 01:56:05,VALID,1001.12,VALID,0,VALID,95.7577,VALID,0,VALID,22.81,VALID,14,VALID,0,
2008-04-12, 01:57:05,VALID,1001.13,VALID,0,VALID,95.7272,VALID,0,VALID,22.8312,VALID,14,VALID,0,
2008-04-12, 01:58:05,VALID,1001.17,VALID,0,VALID,95.7119,VALID,0,VALID,22.7906,VALID,14,VALID,0,
2008-04-12, 01:59:05,VALID,1001.2,VALID,0,VALID,95.7653,VALID,0,VALID,22.7906,VALID,14,VALID,0,
2008-04-12, 02:00:05,VALID,1001.23,VALID,0,VALID,95.834,VALID,0,VALID,22.81,VALID,14,VALID,0,
2008-04-12, 02:01:05,VALID,1001.23,VALID,0,VALID,95.8187,VALID,0,VALID,22.81,VALID,14,VALID,0,
2008-04-12, 02:02:05,VALID,1001.25,VALID,0,VALID,95.8264,VALID,0,VALID,22.7906,VALID,14,VALID,0,
2008-04-12, 02:03:05,VALID,1001.27,VALID,0,VALID,95.7653,VALID,0,VALID,22.7906,VALID,14,VALID,0,
2008-04-12, 02:04:04,VALID,1001.24,VALID,0,VALID,95.7501,VALID,0,VALID,22.7906,VALID,14,VALID,0.246875,
2008-04-12, 02:05:04,VALID,1001.23,VALID,0,VALID,95.7348,VALID,0,VALID,22.7711,VALID,14,VALID,0.392188,
2008-04-12, 02:06:04,VALID,1001.21,VALID,0,VALID,95.689,VALID,0.100563,VALID,22.7516,VALID,14,VALID,0.383594,
2008-04-12, 02:07:04,VALID,1001.18,VALID,0,VALID,95.6433,VALID,0,VALID,22.7322,VALID,14,VALID,0.364844,
2008-04-12, 02:08:04,VALID,1001.18,VALID,0,VALID,95.6433,VALID,0,VALID,22.7127,VALID,14,VALID,0.221875,
2008-04-12, 02:09:04,VALID,1001.18,VALID,0,VALID,95.7043,VALID,0,VALID,22.6933,VALID,14,VALID,0.359766,
2008-04-12, 02:10:04,VALID,1001.17,VALID,0,VALID,95.7043,VALID,0,VALID,22.6933,VALID,14,VALID,0.397656,
2008-04-12, 02:11:04,VALID,1001.16,VALID,0,VALID,95.6967,VALID,0,VALID,22.7127,VALID,14,VALID,0.409766,
2008-04-12, 02:12:04,VALID,1001.16,VALID,0,VALID,95.6662,VALID,0,VALID,22.6933,VALID,14,VALID,0.414844,
2008-04-12, 02:13:04,VALID,1001.16,VALID,0,VALID,95.628,VALID,0,VALID,22.6543,VALID,14,VALID,0.407813,
2008-04-12, 02:14:04,VALID,1001.19,VALID,0,VALID,95.6509,VALID,0,VALID,22.6543,VALID,14,VALID,0.294141,
2008-04-12, 02:15:04,VALID,1001.15,VALID,0,VALID,95.6662,VALID,0,VALID,22.6349,VALID,14,VALID,0.219531,
2008-04-12, 02:16:04,VALID,1001.14,VALID,0,VALID,95.628,VALID,0,VALID,22.6561,VALID,14,VALID,0.276953,
2008-04-12, 02:17:04,VALID,1001.14,VALID,0,VALID,95.6356,VALID,0,VALID,22.6154,VALID,14,VALID,0.201562,
2008-04-12, 02:18:04,VALID,1001.15,VALID,0,VALID,95.6433,VALID,0,VALID,22.6154,VALID,14,VALID,0.205859,
2008-04-12, 02:19:04,VALID,1001.13,VALID,0,VALID,95.7424,VALID,0,VALID,22.6154,VALID,14,VALID,0.175,
2008-04-12, 02:20:04,VALID,1001.16,VALID,0,VALID,95.773,VALID,0,VALID,22.6154,VALID,14,VALID,0,
2008-04-12, 02:21:04,VALID,1001.15,VALID,0,VALID,95.7424,VALID,0,VALID,22.6171,VALID,14,VALID,0,
2008-04-12, 02:22:04,VALID,1001.17,VALID,0,VALID,95.7196,VALID,0,VALID,22.6171,VALID,14,VALID,0,
2008-04-12, 02:23:04,VALID,1001.18,VALID,0,VALID,95.7348,VALID,0,VALID,22.596,VALID,14,VALID,0,
2008-04-12, 02:24:04,VALID,1001.19,VALID,0,VALID,95.7653,VALID,0,VALID,22.5977,VALID,14,VALID,0,
2008-04-12, 02:25:04,VALID,1001.2,VALID,0,VALID,95.7806,VALID,0,VALID,22.596,VALID,14,VALID,0,
2008-04-12, 02:26:04,VALID,1001.19,VALID,0,VALID,95.7959,VALID,0,VALID,22.6171,VALID,14,VALID,0,
2008-04-12, 02:27:04,VALID,1001.2,VALID,0,VALID,95.8111,VALID,0,VALID,22.596,VALID,14,VALID,0,
2008-04-12, 02:28:04,VALID,1001.2,VALID,0,VALID,95.8187,VALID,0,VALID,22.6154,VALID,14,VALID,0,
2008-04-12, 02:29:04,VALID,1001.16,VALID,0,VALID,95.8264,VALID,0,VALID,22.6349,VALID,14,VALID,0,
2008-04-12, 02:30:04,VALID,1001.16,VALID,0,VALID,95.8187,VALID,0,VALID,22.6349,VALID,14,VALID,0,
2008-04-12, 02:31:04,VALID,1001.14,VALID,0,VALID,95.8569,VALID,0,VALID,22.6543,VALID,16,VALID,0,
2008-04-12, 02:32:04,VALID,1001.09,VALID,0,VALID,95.8569,VALID,0,VALID,22.695,VALID,19,VALID,0,
2008-04-12, 02:33:04,VALID,1001.12,VALID,0,VALID,95.8645,VALID,0,VALID,22.7127,VALID,20,VALID,0,
2008-04-12, 02:34:04,VALID,1001.12,VALID,0,VALID,95.8187,VALID,0,VALID,22.7322,VALID,32,VALID,0,
2008-04-12, 02:35:04,VALID,1001.1,VALID,0,VALID,95.7348,VALID,0,VALID,22.7711,VALID,32,VALID,0,
2008-04-12, 02:36:04,VALID,1001.08,VALID,0,VALID,95.6967,VALID,0,VALID,22.7888,VALID,34,VALID,0,
2008-04-12, 02:37:04,VALID,1001.06,VALID,0,VALID,95.5975,VALID,0,VALID,22.8312,VALID,36,VALID,0,
2008-04-12, 02:38:04,VALID,1001.06,VALID,0,VALID,95.5212,VALID,0,VALID,22.8295,VALID,37,VALID,0,
2008-04-12, 02:39:04,VALID,1001.05,VALID,0,VALID,95.4373,VALID,0,VALID,22.81,VALID,37,VALID,0,
2008-04-12, 02:40:04,VALID,1001.06,VALID,0,VALID,95.3763,VALID,0,VALID,22.81,VALID,36,VALID,0,
2008-04-12, 02:41:04,VALID,1001.04,VALID,0,VALID,95.3457,VALID,0,VALID,22.81,VALID,36,VALID,0,
2008-04-12, 02:42:04,VALID,1001.04,VALID,0,VALID,95.3076,VALID,0,VALID,22.7906,VALID,36,VALID,0,
2008-04-12, 02:43:04,VALID,1001.01,VALID,0,VALID,95.2847,VALID,0,VALID,22.7516,VALID,36,VALID,0,
2008-04-12, 02:44:04,VALID,1000.99,VALID,0,VALID,95.3229,VALID,0,VALID,22.7711,VALID,37,VALID,0,
2008-04-12, 02:45:04,VALID,1001.02,VALID,0,VALID,95.3457,VALID,0,VALID,22.7516,VALID,37,VALID,0,
2008-04-12, 02:46:04,VALID,1000.97,VALID,0,VALID,95.3457,VALID,0,VALID,22.7516,VALID,37,VALID,0,
2008-04-12, 02:47:04,VALID,1000.97,VALID,0,VALID,95.3152,VALID,0,VALID,22.7711,VALID,36,VALID,0,
2008-04-12, 02:48:04,VALID,1000.96,VALID,0,VALID,95.3839,VALID,0,VALID,22.7728,VALID,37,VALID,0,
2008-04-12, 02:49:04,VALID,1000.94,VALID,0,VALID,95.361,VALID,0,VALID,22.7516,VALID,37,VALID,0,
2008-04-12, 02:50:04,VALID,1000.97,VALID,0,VALID,95.3534,VALID,0,VALID,22.7322,VALID,37,VALID,0,
2008-04-12, 02:51:04,VALID,1000.96,VALID,0,VALID,95.3381,VALID,0,VALID,22.7322,VALID,36,VALID,0,
2008-04-12, 02:52:04,VALID,1000.97,VALID,0,VALID,95.3381,VALID,0,VALID,22.7127,VALID,36,VALID,0,
2008-04-12, 02:53:04,VALID,1000.97,VALID,0,VALID,95.2466,VALID,0,VALID,22.6933,VALID,37,VALID,0,
2008-04-12, 02:54:04,VALID,1000.96,VALID,0,VALID,95.0406,VALID,0,VALID,22.6543,VALID,36,VALID,0,
2008-04-12, 02:55:04,VALID,1001,VALID,0,VALID,95.0558,VALID,0,VALID,22.6154,VALID,36,VALID,0,
2008-04-12, 02:56:04,VALID,1001.02,VALID,0,VALID,95.1016,VALID,0,VALID,22.596,VALID,36,VALID,0,
2008-04-12, 02:57:04,VALID,1001.02,VALID,0,VALID,95.0635,VALID,0,VALID,22.5765,VALID,36,VALID,0,
2008-04-12, 02:58:04,VALID,1001.02,VALID,0,VALID,95.0711,VALID,0,VALID,22.557,VALID,36,VALID,0,
2008-04-12, 02:59:04,VALID,1001.03,VALID,0,VALID,95.0787,VALID,0,VALID,22.5376,VALID,36,VALID,0,
2008-04-12, 03:00:04,VALID,1001.05,VALID,0,VALID,95.0864,VALID,0,VALID,22.5181,VALID,36,VALID,0,
2008-04-12, 03:01:04,VALID,1001.07,VALID,0,VALID,95.1093,VALID,0,VALID,22.4792,VALID,36,VALID,0,
2008-04-12, 03:02:04,VALID,1001.06,VALID,0,VALID,95.1474,VALID,0,VALID,22.4792,VALID,36,VALID,0,
2008-04-12, 03:03:04,VALID,1001.07,VALID,0,VALID,95.2084,VALID,0,VALID,22.4792,VALID,36,VALID,0,
2008-04-12, 03:04:04,VALID,1001.06,VALID,0,VALID,95.3076,VALID,0,VALID,22.4597,VALID,36,VALID,0.172266,
2008-04-12, 03:05:04,VALID,1001.07,VALID,0,VALID,95.3229,VALID,0,VALID,22.4597,VALID,36,VALID,0.442969,
2008-04-12, 03:06:04,VALID,1001.1,VALID,0,VALID,95.3763,VALID,0,VALID,22.4386,VALID,36,VALID,0.422266,
2008-04-12, 03:07:04,VALID,1001.08,VALID,0,VALID,95.4297,VALID,0,VALID,22.4386,VALID,36,VALID,0.279297,
2008-04-12, 03:08:04,VALID,1001.08,VALID,0,VALID,95.5136,VALID,0,VALID,22.4809,VALID,37,VALID,0.220703,
2008-04-12, 03:09:04,VALID,1001.12,VALID,0,VALID,95.5594,VALID,0,VALID,22.4597,VALID,36,VALID,0.213281,
2008-04-12, 03:10:04,VALID,1001.1,VALID,0,VALID,95.628,VALID,0,VALID,22.4597,VALID,36,VALID,0.192578,
2008-04-12, 03:11:04,VALID,1001.13,VALID,0,VALID,95.7043,VALID,0,VALID,22.4809,VALID,37,VALID,0.192578,
2008-04-12, 03:12:04,VALID,1001.14,VALID,0,VALID,95.7501,VALID,0,VALID,22.4987,VALID,36,VALID,0.284766,
2008-04-12, 03:13:04,VALID,1001.13,VALID,0,VALID,95.773,VALID,0,VALID,22.4987,VALID,36,VALID,0.258203,
2008-04-12, 03:14:04,VALID,1001.13,VALID,0,VALID,95.7653,VALID,0,VALID,22.5181,VALID,36,VALID,0.505859,
2008-04-12, 03:15:04,VALID,1001.14,VALID,0,VALID,95.6662,VALID,0,VALID,22.497,VALID,36,VALID,0.599609,
2008-04-12, 03:16:04,VALID,1001.1,VALID,0,VALID,95.5899,VALID,0,VALID,22.4987,VALID,33,VALID,0.525,
2008-04-12, 03:17:04,VALID,1001.11,VALID,0,VALID,95.5365,VALID,0,VALID,22.5004,VALID,24,VALID,0.516797,
2008-04-12, 03:18:04,VALID,1001.08,VALID,0,VALID,95.4754,VALID,0,VALID,22.4386,VALID,24,VALID,0.467969,
2008-04-12, 03:19:04,VALID,1001.07,VALID,0,VALID,95.5212,VALID,0,VALID,22.4403,VALID,24,VALID,0.387891,
2008-04-12, 03:20:04,VALID,1001.07,VALID,0,VALID,95.5288,VALID,0,VALID,22.4208,VALID,24,VALID,0.392578,
2008-04-12, 03:21:04,VALID,1001.07,VALID,0,VALID,95.4602,VALID,0,VALID,22.4014,VALID,24,VALID,0.348437,
2008-04-12, 03:22:04,VALID,1001.05,VALID,0,VALID,95.5517,VALID,0,VALID,22.3819,VALID,22,VALID,0.459766,
2008-04-12, 03:23:04,VALID,1001.05,VALID,0,VALID,95.7272,VALID,0.100563,VALID,22.4014,VALID,22,VALID,0.439453,
2008-04-12, 03:24:04,VALID,1001.04,VALID,0,VALID,95.7577,VALID,0,VALID,22.4014,VALID,22,VALID,0.447656,
2008-04-12, 03:25:04,VALID,1001.04,VALID,0,VALID,95.8264,VALID,0,VALID,22.4208,VALID,22,VALID,0.306641,
2008-04-12, 03:26:04,VALID,1000.99,VALID,0,VALID,95.7959,VALID,0,VALID,22.4208,VALID,22,VALID,0.341016,
2008-04-12, 03:27:04,VALID,1001.03,VALID,0,VALID,95.7043,VALID,0,VALID,22.4014,VALID,22,VALID,0.315625,
2008-04-12, 03:28:04,VALID,1000.99,VALID,0,VALID,95.7424,VALID,0,VALID,22.3819,VALID,22,VALID,0.398047,
2008-04-12, 03:29:04,VALID,1001,VALID,0,VALID,95.7653,VALID,0,VALID,22.3802,VALID,21,VALID,0.586719,
2008-04-12, 03:30:04,VALID,1001.01,VALID,0,VALID,95.8111,VALID,0,VALID,22.3819,VALID,14,VALID,0.534766,
2008-04-12, 03:31:04,VALID,1001.02,VALID,0,VALID,95.773,VALID,0,VALID,22.3819,VALID,14,VALID,0.523438,
2008-04-12, 03:32:04,VALID,1001.05,VALID,0,VALID,95.7577,VALID,0,VALID,22.343,VALID,13,VALID,0.539844,
2008-04-12, 03:33:04,VALID,1001.09,VALID,0,VALID,95.7882,VALID,0,VALID,22.343,VALID,13,VALID,0.489062,
2008-04-12, 03:34:04,VALID,1001.09,VALID,0,VALID,95.834,VALID,0,VALID,22.3447,VALID,13,VALID,0.473047,
2008-04-12, 03:35:04,VALID,1001.13,VALID,0,VALID,95.9332,VALID,0,VALID,22.343,VALID,357,VALID,0.380859,
2008-04-12, 03:36:04,VALID,1001.12,VALID,0,VALID,95.9942,VALID,0,VALID,22.343,VALID,357,VALID,0.359375,
2008-04-12, 03:37:04,VALID,1001.14,VALID,0,VALID,96.0476,VALID,0,VALID,22.3625,VALID,357,VALID,0.453125,
2008-04-12, 03:38:04,VALID,1001.13,VALID,0,VALID,96.0476,VALID,0,VALID,22.3819,VALID,357,VALID,0.382031,
2008-04-12, 03:39:04,VALID,1001.15,VALID,0,VALID,96.0095,VALID,0,VALID,22.3819,VALID,357,VALID,0.451562,
2008-04-12, 03:40:04,VALID,1001.16,VALID,0,VALID,95.9866,VALID,0,VALID,22.3625,VALID,2,VALID,0.480859,
2008-04-12, 03:41:04,VALID,1001.15,VALID,0,VALID,96.0552,VALID,0.100563,VALID,22.3625,VALID,2,VALID,0.441016,
2008-04-12, 03:42:04,VALID,1001.2,VALID,0,VALID,96.0705,VALID,0,VALID,22.3819,VALID,2,VALID,0.414063,
2008-04-12, 03:43:04,VALID,1001.21,VALID,0,VALID,96.1163,VALID,0,VALID,22.4014,VALID,2,VALID,0.366406,
2008-04-12, 03:44:04,VALID,1001.23,VALID,0,VALID,96.1468,VALID,0,VALID,22.4014,VALID,2,VALID,0.244531,
2008-04-12, 03:45:04,VALID,1001.26,VALID,0,VALID,96.2307,VALID,0.100563,VALID,22.4403,VALID,2,VALID,0.114453,
2008-04-12, 03:46:04,VALID,1001.31,VALID,0,VALID,96.2307,VALID,0,VALID,22.4403,VALID,2,VALID,0,
2008-04-12, 03:47:04,VALID,1001.27,VALID,0,VALID,96.2612,VALID,0,VALID,22.4597,VALID,2,VALID,0.101563,
2008-04-12, 03:48:04,VALID,1001.3,VALID,0,VALID,96.2154,VALID,0,VALID,22.4597,VALID,2,VALID,0,
2008-04-12, 03:49:04,VALID,1001.32,VALID,0,VALID,96.1849,VALID,0,VALID,22.4809,VALID,2,VALID,0,
2008-04-12, 03:50:04,VALID,1001.33,VALID,0,VALID,96.1697,VALID,0,VALID,22.4597,VALID,2,VALID,0,
2008-04-12, 03:51:04,VALID,1001.31,VALID,0,VALID,96.1392,VALID,0,VALID,22.4403,VALID,2,VALID,0,
2008-04-12, 03:52:04,VALID,1001.34,VALID,0,VALID,96.3146,VALID,0,VALID,22.4386,VALID,1,VALID,0.313281,